Regional Weather Roundup
Issued by NWS

Home | Current Version | Previous Version | Graphics & Text | Print | Product List | Glossary On
Versions: 1 2 3 4 5 6 7 8 9 10 11 12 13 14 15 16 17 18 19 20 21 22 23 24 25 26 27 28 29 30 31 32 33 34 35 36 37 38 39 40 41 42 43 44 45 46 47 48 49 50
000
ASUS43 KMKX 061511
RWRWI

WISCONSIN REGIONAL WEATHER ROUNDUP
NATIONAL WEATHER SERVICE MILWAUKEE/SULLIVAN WI
900 AM CST TUE DEC 06 2016

NOTE: "FAIR" INDICATES FEW OR NO CLOUDS BELOW 12,000 FEET WITH NO
SIGNIFICANT WEATHER AND/OR OBSTRUCTIONS TO VISIBILITY.

WIZ001-002-006>008-014>016-023>028-061600-
NORTHWEST WISCONSIN

CITY           SKY/WX    TMP DP  RH WIND       PRES   REMARKS
SUPERIOR ARPT  CLOUDY    28  20  72 SW13G23   29.59S WCI  17
ASHLAND        LGT SNOW  32  30  92 MISG      29.60S FOG
HAYWARD        LGT SNOW  28  25  88 SW12G17   29.61S VSB 1   WCI  18
SIREN          CLOUDY    25  16  69 SW13G21   29.65S WCI  13
CUMBERLAND     CLOUDY    25  19  80 SW17G23   29.66R WCI  11
RICE LAKE      CLOUDY    28  22  79 SW14G22   29.68R WCI  16
CHETEK         CLOUDY    28  24  86 SW13G21   29.67S WCI  17
LADYSMITH      LGT SNOW  30  29  95 SW10      29.66S VSB 1   WCI  21
EAU CLAIRE     LGT SNOW  29  26  89 W13       29.69S FOG     WCI  19
MENOMONIE      CLOUDY    28  24  82 SW16      29.71S WCI  17
NEW RICHMOND   PTSUNNY   24  15  68 W17G25    29.69F WCI  11
OSCEOLA        CLOUDY    25  16  70 SW20G30   29.73S WCI  10
$$

WIZ003>005-009-010-017-018-061600-
NORTH CENTRAL WISCONSIN

CITY           SKY/WX    TMP DP  RH WIND       PRES   REMARKS
MANITOWISH WTR LGT SNOW  30  30 100 S14G20    29.60F WCI  20
ARBOR VITAE    CLOUDY    32  30  92 S12G20    29.62F FOG     WCI  23
WOODRUFF       CLOUDY    32  30  92 S12G20    29.62F FOG     WCI  23
RHINELANDER    CLOUDY    31  29  92 S8        29.66F FOG     WCI  23
EAGLE RIVER    CLOUDY    30  28  92 S9G16     29.64F FOG     WCI  22
LAND O LAKES   CLOUDY    31  29  92 S13       29.65F FOG     WCI  21
PHILLIPS       LGT SNOW  30  30  99 S8        29.61F VSB 1   WCI  23
TOMAHAWK       CLOUDY    29  28  94 SE5       29.66F FOG     WCI  24
MEDFORD        LGT SNOW  29  28  95 S12       29.65F VSB 1   WCI  20
MERRILL        CLOUDY    30  30  98 S6        29.68F FOG     WCI  24
$$

WIZ029-030-035-036-043>047-061600-
CENTRAL WISCONSIN

CITY           SKY/WX    TMP DP  RH WIND       PRES   REMARKS
WAUSAU         CLOUDY    30  29  96 S10       29.69F FOG     WCI  21
MOSINEE        CLOUDY    30  30 100 SE10      29.70F FOG     WCI  21
MARSHFIELD     LGT SNOW  30  28  92 S10       29.67F VSB 3/4 WCI  21
STEVENS POINT  CLOUDY    29  29 100 S7        29.72F FOG     WCI  22
WAUPACA        CLOUDY    33  31  90 CALM      29.76F FOG
WAUTOMA        CLOUDY    32  30  92 S8        29.75F FOG     WCI  25
WISC RAPIDS    CLOUDY    32  30  92 S6        29.72F WCI  26
CAMP DOUGLAS   LGT SNOW  32  30  93 S6        29.72F FOG     WCI  26
$$

WIZ011>013-019>022-031-037>040-048>050-061600-
NORTHEAST WISCONSIN

CITY           SKY/WX    TMP DP  RH WIND       PRES   REMARKS
ANTIGO         CLOUDY    29  29 100 S15       29.68F FOG     WCI  17
SHAWANO        CLOUDY    34  32  90 S6        29.75F FOG     WCI  29
OCONTO         CLOUDY    38  34  83 S9        29.77F WCI  32
STURGEON BAY   CLOUDY    38  33  82 S12G20    29.78F WCI  30
GREEN BAY      CLOUDY    37  36  96 S6        29.77F WCI  32
MANITOWOC      CLOUDY    39  32  76 MISG      29.78F
APPLETON       FOG       32  32 100 SW7       29.75F VSB 3/4 WCI  26
CLINTONVILLE   CLOUDY    32  30  93 S8        29.76F FOG     WCI  25
OSHKOSH        CLOUDY    33  32  96 SW6       29.76F FOG     WCI  28
$$

WIZ032>034-041-042-053>061-061600-
SOUTHWEST WISCONSIN

CITY           SKY/WX    TMP DP  RH WIND       PRES   REMARKS
LA CROSSE      CLOUDY    33  29  85 W8        29.75S WCI  26
SPARTA         LGT SNOW  32  31  97 CALM      29.73S VSB 1
VIROQUA        CLOUDY    32  32 100 SW9       29.73R VSB 1   WCI  24
BOSCOBEL       LGT SNOW  35  32  88 SW5       29.77S FOG     WCI  31
PRAIRIE DU CHI LGT SNOW  33  31  92 W8        29.78R WCI  26
PLATTEVILLE    CLOUDY    32  32 100 S7        29.77S VSB 1/2 WCI  26
$$

WIZ056-057-062-063-064-067-068-061600-
SOUTH CENTRAL WISCONSIN

CITY           SKY/WX    TMP DP  RH WIND       PRES   REMARKS
REEDSBURG      CLOUDY    32  32 100 S8        29.74S FOG     WCI  24
BARABOO/DELLS  CLOUDY    32  31  97 S7        29.74F FOG     WCI  25
LONE ROCK      CLOUDY    33  32  96 CALM      29.77F FOG
MINERAL POINT  FOG       34  34 100 S6        29.75S VSB<1/4 WCI  29
MADISON        CLOUDY    32  30  92 S10       29.76F FOG     WCI  24
MIDDLETON      NOT AVBL
WATERTOWN      FOG       32  32 100 S3        29.78S VSB 1/2
MONROE         CLOUDY    32  32 100 CALM      29.76F FOG
JANESVILLE     FOG       34  34 100 CALM      29.78F VSB 1/4
$$

WIZ051-052-058>065-066-070>072-061600-
SOUTHEAST WISCONSIN

CITY           SKY/WX    TMP DP  RH WIND       PRES   REMARKS
MILWAUKEE      PTSUNNY   41  35  79 SE6       29.78F
WAUKESHA       CLOUDY    30  30 100 CALM      29.78F FOG
MILWAUKEE/TIMM CLOUDY    34  30  86 W3        29.79F FOG
RACINE         CLOUDY    40  34  79 SE6       29.79F
BURLINGTON     CLOUDY    33  33  99 CALM      29.78S FOG
KENOSHA        CLOUDY    31  30  96 W5        29.78F FOG     WCI  26
FOND DU LAC    CLOUDY    33  30  88 SW7       29.76F FOG     WCI  27
SHEBOYGAN      CLOUDY    39  33  79 SE9       29.77F WCI  33
WEST BEND      CLOUDY    32  32 100 CALM      29.77F FOG
JUNEAU         CLOUDY    31  31  99 S6        29.77F FOG     WCI  26
$$

LSZ147-162-061600-
LAKE SUPERIOR

STATION/POSITION TIME  TEMP    WIND        PRES    WAVE
                       AIR SEA DIR/SP/G            HT/PER
                 (UTC) (F)     (DEG/KT/KT) (MB)    (FT/S)
DEVILS ISLAND    1500   35     190/  9/ 12 1002.2F
PORT WING        1430   32     210/  6/ 10 1002.0F
SAXON HARBOR     1430   36     180/  8/ 14 1002.4S
$$

LMZ867-665-643>646-061600-
LAKE MICHIGAN

STATION/POSITION TIME  TEMP    WIND        PRES    WAVE
                       AIR SEA DIR/SP/G            HT/PER
                 (UTC) (F)     (DEG/KT/KT) (MB)    (FT/S)
CHAMBERS ISLAND  1440   39     140/  7/ 14 1008.1F
NORTHPORT PIER   1500   40     150/ 15/ 23 1008.5
SISTER BAY       1438   40     170/ 14/ 17   N/A
ALGOMA LAKESHORE 1451          190/ 21/ 23   N/A
KEWAUNEE LAKESHO 1442   38     170/ 16/ 18 1008.3F
SHEBOYGAN LAKESH 1500   39     150/ 17/ 19 1008.3F
PORT WASHINGTON  1440   41     150/  9/ 12 1009.5F
MILWAUKEE LAKESH 1450   40     140/ 11/ 13   N/A
KENOSHA   LAKESH 1500   40     140/ 11/ 12 1008.5
$$

TC  - TEMPERATURE IN CELSIUS
VSB - VISIBILITY IN STATUTE MILES
WCI - WIND CHILL INDEX
HX  - HEAT INDEX




USA.gov is the U.S. government's official web portal to all federal, state and local government web resources and services.